Temp
76 75 74 74 74 75 75 75 74 75 75 75 75 74 71 67 62 64 71 71 76 76 76 76 76 76 75 75 75 75 75 75 75
76 74 74 74 74 74 74 75 75 74 75 75 74 71 68 63 66 68 68 72 76 76 76 76 76 75 75 75 75 75 75 74 74
75 73 73 73 74 74 74 74 74 74 74 74 71 70 69 69 68 66 68 74 75 76 75 74 75 75 74 74 74 74 74 74 74
74 73 73 73 74 74 74 74 74 74 74 72 70 70 68 67 68 72 72 73 75 74 75 74 73 74 74 73 73 73 73 73 73
72 71 72 74 73 73 73 73 73 74 72 71 69 68 68 67 70 70 71 75 75 75 74 74 74 73 73 73 74 73 73 73 73
66 67 70 72 73 72 73 72 72 71 69 69 68 67 67 69 68 66 72 73 74 74 74 72 73 72 72 72 73 72 72 72 72
64 64 69 71 71 71 72 71 69 65 62 64 65 64 68 67 63 66 72 74 73 73 73 72 73 72 72 72 72 72 71 71 71
60 60 62 63 64 62 65 61 59 59 61 61 64 67 67 67 61 68 72 73 74 73 73 72 72 73 71 72 72 71 70 71 70
58 58 59 59 58 59 60 57 58 59 60 61 65 66 66 64 59 67 69 72 72 73 73 72 71 72 72 71 71 71 71 70 71
56 57 57 57 57 58 56 57 58 59 59 61 65 65 63 58 59 66 67 68 72 72 73 72 72 71 71 71 70 71 70 70 70
57 56 56 56 56 57 56 58 59 59 59 60 65 64 62 58 60 63 66 68 70 72 72 72 71 72 71 70 70 70 69 68 68
59 57 56 55 55 56 55 57 58 59 60 60 64 63 62 59 57 57 59 64 68 70 72 72 72 71 71 71 70 70 68 68 68
59 57 56 54 54 55 56 58 59 58 60 61 62 62 61 58 56 56 56 57 58 66 70 71 72 71 71 71 69 69 68 68 68
62 58 55 54 54 54 56 58 59 58 58 60 59 60 59 58 57 54 54 56 55 55 63 64 66 68 70 70 69 69 68 67 67
62 58 55 56 54 52 54 59 59 58 59 59 56 56 57 57 54 53 55 54 54 53 54 54 56 64 68 69 69 68 67 67 67
59 58 55 56 56 56 55 57 56 55 57 55 54 54 55 56 56 55 52 52 52 52 52 51 52 53 62 64 66 68 67 67 67
58 57 55 56 55 55 55 55 55 54 59 56 53 49 52 54 55 54 54 50 50 51 51 51 51 50 51 56 62 64 67 67 67
59 57 57 55 56 56 56 57 56 54 54 60 52 48 49 46 50 52 50 49 48 49 49 50 50 49 49 52 54 60 62 67 67
59 57 58 56 56 56 56 58 58 57 54 53 53 50 49 47 43 45 47 48 48 48 48 48 49 49 48 52 54 58 61 66 66
59 58 59 58 57 56 56 57 56 59 57 58 49 46 46 46 45 41 44 45 47 47 48 48 48 48 48 48 51 58 61 66 66
MSLP
1017.24 1017.64 1017.97 1018.29 1018.63 1018.82 1018.95 1019.09 1019.33 1019.59 1019.71 1019.70 1019.97 1020.13 1020.32 1020.51 1020.76 1020.73 1020.58 1020.73 1020.84 1020.89 1020.98 1021.02 1021.14 1021.24 1021.26 1021.25 1021.16 1021.11 1021.07 1021.07 1020.92
1017.38 1017.88 1018.22 1018.50 1018.80 1019.07 1019.31 1019.42 1019.59 1019.84 1019.82 1019.98 1020.31 1020.62 1020.76 1020.96 1021.01 1021.12 1021.17 1021.03 1021.17 1021.49 1021.51 1021.52 1021.57 1021.69 1021.66 1021.54 1021.63 1021.67 1021.77 1021.69 1021.62
1017.57 1017.99 1018.30 1018.60 1018.94 1019.31 1019.59 1019.74 1019.92 1020.04 1020.13 1020.35 1020.67 1020.87 1020.95 1021.12 1021.46 1021.64 1021.52 1021.54 1021.87 1021.87 1022.08 1022.25 1022.15 1022.14 1022.11 1022.06 1022.24 1022.30 1022.32 1022.32 1022.21
1017.72 1018.13 1018.34 1018.60 1018.89 1019.45 1019.82 1019.99 1020.22 1020.33 1020.45 1020.74 1021.04 1021.09 1021.23 1021.51 1021.79 1021.74 1022.02 1022.10 1022.10 1022.43 1022.46 1022.64 1022.79 1022.77 1022.56 1022.64 1022.74 1022.84 1022.95 1022.83 1022.72
1017.80 1018.21 1018.39 1018.53 1018.97 1019.54 1019.86 1020.19 1020.51 1020.53 1020.83 1021.13 1021.33 1021.46 1021.56 1021.91 1022.01 1022.41 1022.57 1022.41 1022.54 1022.75 1023.00 1023.01 1023.09 1023.27 1023.24 1023.17 1023.17 1023.26 1023.39 1023.39 1023.44
1018.03 1018.27 1018.47 1018.69 1019.07 1019.58 1019.99 1020.29 1020.60 1020.94 1021.29 1021.49 1021.67 1021.83 1022.00 1022.21 1022.49 1022.92 1022.98 1022.89 1022.99 1023.20 1023.35 1023.57 1023.51 1023.70 1023.77 1023.77 1023.76 1023.83 1023.88 1023.96 1023.98
1018.11 1018.43 1018.51 1018.88 1019.23 1019.58 1019.95 1020.56 1020.99 1021.41 1021.84 1021.95 1022.07 1022.24 1022.29 1022.54 1023.24 1023.32 1023.27 1023.26 1023.43 1023.58 1023.74 1023.97 1023.91 1024.13 1024.13 1024.27 1024.19 1024.29 1024.40 1024.42 1024.44
1018.19 1018.53 1018.77 1019.06 1019.49 1019.66 1020.07 1020.87 1021.55 1021.81 1022.15 1022.46 1022.51 1022.50 1022.58 1023.14 1023.61 1023.66 1023.67 1023.72 1023.75 1023.89 1024.06 1024.16 1024.34 1024.35 1024.59 1024.61 1024.67 1024.80 1024.86 1024.84 1024.84
1018.15 1018.53 1018.92 1019.37 1019.88 1020.12 1020.22 1020.95 1021.65 1022.06 1022.36 1022.71 1022.77 1022.85 1023.12 1023.63 1024.13 1024.05 1024.07 1024.07 1024.01 1024.12 1024.43 1024.53 1024.70 1024.74 1024.89 1025.06 1025.16 1025.06 1025.10 1025.14 1025.12
1018.41 1018.56 1018.83 1019.47 1020.01 1020.35 1020.69 1021.00 1021.47 1022.14 1022.63 1022.91 1022.93 1023.29 1023.60 1024.21 1024.48 1024.45 1024.46 1024.60 1024.33 1024.54 1024.67 1024.77 1024.91 1025.18 1025.30 1025.46 1025.54 1025.50 1025.60 1025.50 1025.61
1018.20 1018.84 1019.21 1019.45 1020.04 1020.55 1020.76 1021.01 1021.44 1022.08 1022.76 1023.13 1023.20 1023.66 1024.05 1024.63 1024.83 1024.95 1024.78 1024.89 1024.83 1024.86 1024.98 1025.02 1025.16 1025.31 1025.57 1025.79 1025.85 1025.87 1026.01 1026.08 1026.12
1017.76 1018.56 1019.30 1019.86 1020.07 1020.50 1021.14 1021.31 1021.64 1022.09 1022.78 1023.22 1023.47 1023.96 1024.39 1024.89 1025.25 1025.38 1025.23 1025.27 1025.24 1025.16 1025.26 1025.34 1025.33 1025.54 1025.79 1025.97 1026.04 1026.16 1026.32 1026.43 1026.40
1017.48 1018.21 1019.04 1019.78 1020.41 1020.58 1021.01 1021.25 1021.80 1022.34 1022.82 1023.34 1023.88 1024.26 1024.68 1025.21 1025.53 1025.71 1025.66 1025.76 1025.96 1025.79 1025.57 1025.67 1025.55 1025.71 1025.97 1026.18 1026.42 1026.49 1026.56 1026.61 1026.61
1017.11 1017.83 1018.82 1019.55 1020.54 1020.82 1020.94 1021.30 1021.51 1022.38 1022.98 1023.57 1024.21 1024.63 1025.02 1025.41 1025.75 1026.08 1026.15 1026.10 1026.36 1026.63 1026.31 1026.28 1026.10 1026.01 1026.15 1026.43 1026.68 1026.80 1026.96 1026.95 1026.79
1017.05 1017.78 1018.91 1019.25 1020.21 1021.14 1021.05 1021.19 1021.71 1022.36 1022.86 1023.87 1024.77 1025.20 1025.41 1025.74 1026.03 1026.35 1026.41 1026.52 1026.66 1026.91 1026.99 1026.98 1026.88 1026.48 1026.33 1026.59 1026.77 1027.09 1027.33 1027.42 1027.16
1016.97 1017.98 1018.76 1019.35 1019.83 1020.47 1021.05 1021.39 1021.72 1022.67 1023.00 1023.98 1025.30 1025.88 1025.98 1026.28 1026.25 1026.47 1026.68 1026.86 1026.93 1027.10 1027.31 1027.41 1027.29 1027.22 1026.84 1027.01 1027.16 1027.20 1027.41 1027.51 1027.55
1015.89 1017.76 1018.83 1019.37 1019.87 1020.23 1020.84 1021.05 1021.78 1022.30 1022.83 1023.40 1024.81 1026.18 1026.56 1026.52 1026.66 1026.76 1026.75 1027.06 1027.15 1027.28 1027.44 1027.49 1027.56 1027.51 1027.39 1027.31 1027.37 1027.48 1027.51 1027.63 1027.63
1015.25 1017.06 1018.23 1019.39 1019.83 1019.68 1020.36 1020.87 1020.98 1021.48 1022.71 1022.88 1023.42 1025.60 1025.89 1026.56 1026.88 1026.89 1026.96 1027.14 1027.36 1027.33 1027.51 1027.59 1027.68 1027.76 1027.62 1027.57 1027.61 1027.56 1027.66 1027.68 1027.75
1014.59 1015.28 1018.26 1019.71 1019.45 1019.49 1019.85 1020.41 1020.87 1020.90 1021.99 1023.17 1023.27 1023.83 1024.91 1026.13 1027.23 1027.05 1027.05 1027.11 1027.32 1027.26 1027.49 1027.51 1027.66 1027.79 1027.77 1027.62 1027.68 1027.56 1027.54 1027.59 1027.72
1014.48 1014.90 1017.59 1018.70 1018.74 1019.12 1019.44 1020.06 1020.67 1020.89 1021.28 1022.07 1023.35 1024.14 1025.04 1025.63 1026.30 1026.99 1027.11 1027.22 1026.99 1027.09 1027.24 1027.34 1027.49 1027.70 1027.72 1027.64 1027.57 1027.62 1027.50 1027.38 1027.67
Wind_Speed
13 11 12 11 9 10 11 12 13 12 9 11 14 14 14 11 7 6 7 6 18 19 20 19 17 16 15 15 15 19 19 19 20
12 11 11 11 10 11 11 12 14 11 13 15 14 14 13 6 6 6 4 7 17 17 16 17 17 15 15 15 18 18 18 19 19
12 12 12 12 11 11 11 12 13 12 14 14 14 15 11 9 5 4 6 16 13 14 14 14 13 14 15 19 18 18 17 18 18
13 13 14 14 13 12 12 13 12 12 14 14 14 15 13 7 4 7 6 12 13 16 14 14 14 11 13 18 18 18 17 17 18
14 12 12 13 13 12 11 12 10 13 14 15 14 13 12 5 6 6 4 12 13 15 14 13 14 12 12 14 16 16 16 16 15
9 7 11 12 14 13 11 13 10 14 13 14 13 10 4 7 6 2 12 12 14 14 14 13 13 13 12 13 14 15 15 15 15
6 5 11 13 14 13 14 13 10 9 4 5 8 3 6 7 5 2 8 11 14 13 14 12 13 13 13 14 14 13 15 14 14
4 3 3 5 8 4 7 7 4 6 5 4 4 6 6 5 3 4 8 11 12 14 14 13 13 13 14 14 14 15 13 15 15
5 4 5 5 3 4 6 4 5 6 6 5 6 6 6 5 2 3 7 9 14 13 13 13 12 13 13 13 13 15 13 13 14
4 4 5 5 4 4 5 6 6 6 6 4 8 7 7 6 2 2 6 10 10 13 12 13 11 12 11 12 11 13 12 13 13
5 4 4 6 4 4 5 6 7 6 6 5 7 7 7 6 4 3 2 9 7 11 11 13 12 11 12 11 10 12 12 13 12
8 6 5 4 4 7 5 5 6 7 5 6 7 6 7 5 6 4 4 3 8 8 9 10 10 10 10 9 10 10 12 10 9
9 8 6 6 4 5 6 7 7 7 7 7 6 5 6 5 5 4 4 4 4 3 8 8 9 10 9 9 9 8 9 9 8
10 8 6 8 4 4 6 6 9 8 6 7 5 4 5 4 4 4 4 5 4 3 8 10 6 9 7 8 7 8 7 7 7
8 7 8 9 7 4 3 9 6 8 9 8 6 4 3 2 4 4 3 3 5 4 5 4 5 10 7 6 7 7 6 6 6
9 5 7 7 10 10 6 6 11 5 8 8 5 4 4 2 2 2 3 3 3 3 3 2 2 3 12 10 8 4 6 6 4
12 8 7 8 8 9 8 8 5 4 8 6 4 3 1 1 2 1 2 3 2 3 3 2 2 2 3 5 7 6 3 5 4
15 11 6 7 8 10 11 10 10 8 3 11 6 4 3 3 1 4 3 5 3 3 3 3 2 2 2 2 2 3 5 5 3
16 16 9 9 8 10 10 9 8 8 10 3 3 5 5 4 2 2 3 4 4 5 3 4 4 4 2 3 3 2 2 5 3
16 17 15 12 9 9 10 10 9 8 9 8 3 3 3 3 3 2 3 1 3 4 4 4 4 5 4 3 3 4 3 7 4
Wind_Direction
128 139 129 128 133 131 133 140 125 119 133 135 121 105 88 78 60 48 58 76 86 85 81 76 86 83 71 67 78 75 72 66 65
151 144 135 135 141 141 138 146 133 128 124 124 116 102 91 85 69 64 76 89 80 79 81 78 83 85 72 75 72 74 66 63 59
157 149 145 142 150 145 146 147 136 136 130 119 111 105 94 80 66 80 84 82 96 92 86 86 86 89 66 73 69 67 61 59 59
159 156 153 154 146 149 151 152 140 146 132 120 109 99 86 86 80 75 80 100 103 94 88 105 94 87 71 68 71 63 57 54 55
157 160 164 150 148 149 153 150 154 150 132 121 112 95 86 84 82 83 109 117 101 102 103 90 104 89 69 57 65 60 57 59 49
148 168 154 146 152 153 159 141 144 125 122 117 104 88 81 89 81 82 109 109 106 105 102 88 90 92 92 85 74 69 70 65 62
153 175 155 148 149 155 153 128 112 98 88 94 88 93 94 90 90 94 118 125 112 108 100 102 93 97 90 83 83 83 75 70 61
146 150 145 134 140 144 119 106 98 110 105 81 98 98 91 90 77 117 114 122 129 116 105 108 98 98 90 90 82 81 76 77 66
156 141 139 123 125 126 119 116 119 107 106 109 105 95 101 90 78 99 111 135 124 108 113 100 108 94 94 90 86 76 74 71 73
153 146 131 129 125 132 123 125 125 114 109 100 112 108 101 101 87 90 126 79 124 113 116 121 109 99 96 91 82 85 76 74 64
150 142 140 132 135 132 132 137 132 121 122 107 117 118 109 107 94 63 118 125 100 117 128 113 104 103 96 93 91 85 80 66 71
152 144 144 140 138 126 115 115 119 121 114 117 119 120 112 115 114 103 76 58 134 137 124 112 117 117 104 94 91 81 80 75 69
156 149 148 136 137 133 141 144 134 128 130 121 122 125 116 112 110 98 94 84 45 69 132 128 124 116 99 100 97 98 85 88 77
162 156 144 139 138 148 149 146 145 135 119 118 106 110 124 124 109 102 97 96 84 49 45 46 70 110 117 105 101 85 80 73 64
164 144 150 149 142 152 163 144 132 139 126 109 86 77 84 104 130 134 109 104 98 77 64 53 18 34 116 108 104 85 83 71 61
150 152 150 162 167 168 163 137 134 117 127 110 86 51 66 76 101 146 134 137 127 108 96 82 59 15 56 55 49 105 93 90 60
143 147 172 174 167 153 169 162 148 109 166 136 118 129 114 161 177 198 172 182 167 145 149 142 113 73 76 62 40 38 49 98 98
151 148 171 177 182 172 175 176 172 150 155 170 135 150 195 125 214 219 205 180 205 173 178 170 169 174 144 79 57 22 353 130 113
158 142 185 190 184 180 179 180 182 157 164 111 84 87 129 169 200 232 228 191 205 200 200 183 193 193 184 177 217 251 333 147 143
179 161 184 186 185 185 176 176 186 181 166 168 143 104 80 79 126 199 219 259 210 214 205 200 196 208 202 199 212 234 309 177 174